825  
ASUS44 KEWX 010510  
RWRTX  
SOUTH TEXAS REGIONAL WEATHER ROUNDUP  
NATIONAL WEATHER SERVICE AUSTIN/SAN ANTONIO TX  
1200 AM CDT SAT NOV 01 2014  
 
NOTE: "FAIR" INDICATED FEW OR NO CLOUDS BELOW 12,000 FEET WITH NO  
SIGNIFICANT WEATHER AND/OR S TO VISIBILITY
.  
 
* - THESE STATIONS ARE NOT NWS OR FAA STATIONS...AND ARE NOT SUBJECT  
TO NWS AND FAA QUALITY CONTROL.
 
 
TXZ171-172-183>190-010600-  
TEXAS HILL COUNTRY AND EDWARDS PLATEAU  
 
CITY SKY/WX TMP DP RH WIND PRES REMARKS
 
JUNCTION CLEAR 50 34 54 CALM 30.35R  
*LLANO CLEAR 55 39 54 E5 30.39R  
BURNET CLEAR 53 40 61 N6 30.36R  
*HORSESHOE BAY CLEAR 54 40 59 CALM 30.35R  
*KERRVILLE CLEAR 51 44 76 CALM 30.34R  
*FREDERICKSBRG CLEAR 52 41 66 CALM 30.34R  
*ROCKSPRINGS NOT AVBL  
*BOERNE STAGE CLEAR 48 37 66 NW3 30.34S  
*CASTROVILLE CLEAR 60 40 47 NE8 30.32S  
HONDO CLEAR 47 45 93 NE7 30.33R WCI 44  
*UVALDE CLEAR 55 46 71 NE7 30.30S  
DEL RIO CLEAR 61 41 47 E9 30.28R  
LAUGHLIN AFB CLEAR 57 42 56 E8 30.29S  
CARRIZO SPRGS CLEAR 59 50 72 E3 30.28R  

 
 
TXZ173-191>194-202-209-217>225-228-010600-  
CENTRAL AND SOUTH CENTRAL TEXAS  
 
CITY SKY/WX TMP DP RH WIND PRES REMARKS
 
GEORGETOWN CLEAR 54 39 58 N5 30.34S  
AUSTIN/BERGSTM CLEAR 56 42 59 NE9 30.32S  
AUSTIN/MABRY CLEAR 58 41 53 NE6 30.33S  
*AUSTIN/EXEC MOCLDY 54 39 58 NE8 30.34R  
*LAGO VISTA CLEAR 55 40 56 NE8 30.32F  
SAN MARCOS CLEAR 55 37 50 NE9 30.33S  
NEW BRAUNFELS CLEAR 57 41 55 NE9 30.31R  
RANDOLPH AFB CLEAR 58 41 52 NE7 30.32R  
PT SAN ANTONIO CLEAR 60 41 49 NE9 30.30R  
SAN ANTONIO PTCLDY 59 42 53 NE6 30.32R  
STINSON FIELD NOT AVBL  
*PLEASANTON CLEAR 57 44 61 NE5 30.31S  
*LA GRANGE CLEAR 57 44 61 N3 30.29S  
*GIDDINGS CLEAR 54 41 62 N6 30.35S  
*GONZALES CLEAR N/A N/A N/A NE5 30.30S  

 
 
TXZ163>164-176>182-195>201-210>213-226-227-235-010600-  
SOUTHEAST TEXAS  
 
CITY SKY/WX TMP DP RH WIND PRES REMARKS
 
COLLEGE STN CLEAR 52 42 69 N9 30.32R  
*BRYAN CLEAR 51 42 71 NW5 30.34R  
*CALDWELL CLEAR 54 39 58 N6 30.36R  
*CROCKETT CLEAR 54 46 76 N5 30.34S  
*BRENHAM CLEAR 55 44 65 N6 30.32R  
HUNTSVILLE NOT AVBL  
CONROE CLEAR 50 44 80 N3 30.30R  
HOUSTON BUSH NOT AVBL  
HOUSTON HOBBY NOT AVBL  
*HOUSTON SW AP CLEAR 57 46 66 N5 30.28R  
PEARLAND NOT AVBL  
HOUSTON HOOKS CLEAR 56 44 64 N5 30.29R  
ELLINGTON FLD NOT AVBL  
SUGAR LAND NOT AVBL  
*HOUSTON EXEC MOCLDY 52 N/A N/A NW7 30.31R  
*CLEVELAND MUN CLEAR 54 48 78 N3 30.29R  
*WHARTON CLEAR 58 43 59 N8 30.29R  
*COLUMBUS FAIR 57 43 58 N3 30.29S  

 
 
TXZ214>216-236>238-010600-  
THE UPPER TEXAS COAST  
 
CITY SKY/WX TMP DP RH WIND PRES REMARKS
 
*ORANGE CLEAR 55 48 79 N5 30.27R  
PORT ARTHUR CLEAR 57 47 69 N7 30.25S  
GALVESTON CLEAR 65 49 56 N18G30 30.27R  
ANGLETON NOT AVBL  
*BAY CITY N/A 59 47 62 N7 30.27R  
PALACIOS NOT AVBL  

 
 
TXZ229>234-239>247-010600-  
TEXAS COASTAL BEND AND RIO GRANDE PLAINS  
 
CITY SKY/WX TMP DP RH WIND PRES REMARKS
 
VICTORIA CLEAR 55 42 61 N8 30.29S  
*BEEVILLE CLEAR 62 43 50 NE9 30.29R  
ROCKPORT NOT AVBL  
*PORT ARANSAS CLEAR 68 49 50 NE15G22 30.25S  
*PORT LAVACA CLEAR 56 44 63 N7 30.29R  
*INGLESIDE CLEAR 68 46 45 NE13 30.26S  
CORPUS CHRISTI CLEAR 66 46 48 NE17 30.26S  
CORPUS NAS CLEAR 68 47 46 NE25 30.25R  
*ROBSTOWN NOT AVBL  
ALICE CLEAR 61 49 64 NE8 30.27R  
KINGSVILLE NAS NOT AVBL  
COTULLA CLEAR 63 45 51 E9 30.29S  
*FAITH RANCH CLEAR 57 48 72 NE5 30.28S  
LAREDO NOT AVBL  

 
 
TXZ248>255-010600-  
DEEP SOUTH TEXAS  
 
CITY SKY/WX TMP DP RH WIND PRES REMARKS
 
BROWNSVILLE CLEAR 65 59 81 N3 30.23S  
PORT ISABEL CLEAR 65 59 81 NW7 30.22S  
*SOUTH PADRE NOT AVBL  
HARLINGEN CLEAR 59 56 89 NW5 30.23S  
*HEBBRONVILLE CLEAR 61 47 59 NE7 30.28S  
MCALLEN NOT AVBL  
*WESLACO CLEAR 61 56 85 CALM 30.24F  
FALFURRIAS CLEAR 61 50 67 N5 30.25S  
EDINBURG CLEAR 61 55 83 N6 30.25F  
*ZAPATA NOT AVBL  

 
 
TXZ213>215-236>238-242>244-246-247-251-254-255-010600-  
CMAN STATIONS  
 
STATION/POSITION TIME TEMP WIND PRES WAVE
 
AIR SEA DIR/SP/G HT/PER  
(UTC) (F) (DEG/KT/KT) (MB) (FT/S)  
SABINE PASS 0500 62 72 20/ 12/ 14 1024.4  
SEA RIM ST PARK 0500 57 360/ 7/ 9 1025.1  
NORTH JETTY/GLS 0500 64 73 50/ 18/ 20 N/A  
EAGLE POINT 0500 65 73 40/ 15/ 19 1024.8  
MORGANS POINT 0500 61 10/ 8/ 11 1025.0  
MISSION/ARANSAS 0400 30/ 13 1026.0  
PORT O'CONNOR 0500 10/ 23/ 25 N/A  
PORT ARANSAS 0500 68 77 10/ 20/ 23 1025.1  
MALAQUITE BEACH 0500 71 78 360/ 21/ 25 1023.8  
BAFFIN BAY 0500 72 81 20/ 19/ 24 1024.3  
PORT ISABEL 0500 76 78 20/ 9/ 13 1023.1  

 
 
GMZ080-GMZ150>470-010600-  
OFFSHORE BUOY REPORTS  
 
STATION/POSITION TIME TEMP WIND PRES WAVE
 
AIR SEA DIR/SP/G HT/PER  
(UTC) (F) (DEG/KT/KT) (MB) (FT/S)  
20 E GALVESTON 0400 68 76 20/ 23/ 27 1023.2 4/ 5  
90 E PT ARANSAS 0400 74 79 20/ 19/ 23 1023.1 4/ 5  
35 NE PT MANSFLD 0400 77 80 30/ 16/ 19 1022.8 4/ 5  
200 E PT ISABEL 0500 75 80 20/ 21/ 25 1021.1 5/ 6  

 
 
CLICK HERE TO GO TO PREVIOUS BULLETINS.

The Nexlab TX Page Main Text Page